Temp
-17 -17 -17 -17 -18 -18 -19 -19 -19 -19 -19 -19 -19 -19 -19 -19 -19 -18 -18 -18 -18 -17 -17 -17 -17 -17 -17 -16 -16 -16 -16 -16 -16 -16 -16 -16 -16 -16 -16 -16 -16 -16 -16 -14
-18 -18 -18 -17 -18 -18 -19 -19 -19 -19 -19 -19 -19 -19 -19 -18 -18 -18 -18 -17 -17 -17 -17 -17 -16 -16 -16 -16 -16 -16 -16 -16 -16 -16 -16 -16 -16 -16 -16 -16 -16 -16 -16 -14
-18 -18 -18 -18 -18 -18 -18 -19 -19 -18 -19 -18 -18 -18 -18 -18 -17 -17 -17 -17 -17 -17 -17 -17 -16 -16 -16 -16 -16 -16 -16 -16 -16 -17 -17 -17 -17 -16 -17 -16 -16 -17 -16 -16
-19 -18 -18 -18 -18 -18 -18 -18 -18 -18 -18 -18 -17 -17 -17 -17 -17 -17 -17 -17 -17 -17 -17 -17 -16 -16 -16 -16 -16 -16 -17 -17 -17 -17 -17 -17 -17 -16 -16 -17 -17 -17 -17 -16
-20 -19 -19 -18 -18 -18 -18 -18 -18 -18 -18 -18 -18 -17 -17 -17 -17 -17 -17 -17 -17 -17 -17 -17 -17 -17 -17 -17 -17 -17 -17 -17 -17 -17 -17 -17 -16 -17 -17 -18 -18 -18 -18 -16
-20 -20 -19 -19 -19 -19 -18 -18 -19 -18 -18 -18 -18 -17 -17 -17 -17 -17 -17 -17 -17 -17 -17 -17 -17 -17 -18 -18 -18 -17 -17 -17 -17 -16 -17 -17 -16 -17 -18 -18 -19 -19 -18 -18
-20 -20 -20 -19 -19 -19 -19 -19 -19 -19 -19 -19 -18 -18 -18 -18 -18 -18 -18 -18 -18 -18 -18 -18 -18 -18 -18 -18 -18 -18 -18 -18 -18 -17 -18 -17 -17 -17 -18 -19 -19 -19 -19 -19
-21 -20 -20 -20 -20 -20 -19 -19 -19 -19 -19 -19 -19 -19 -19 -19 -19 -18 -18 -18 -18 -18 -18 -18 -18 -18 -18 -18 -19 -19 -19 -19 -18 -18 -18 -18 -18 -19 -19 -19 -19 -20 -20 -19
-21 -21 -21 -21 -21 -20 -20 -20 -20 -20 -20 -20 -19 -19 -19 -19 -19 -19 -18 -19 -19 -19 -19 -19 -19 -18 -19 -19 -19 -19 -19 -19 -19 -19 -19 -18 -19 -20 -20 -20 -20 -20 -21 -21
-22 -21 -21 -21 -21 -21 -21 -21 -21 -21 -20 -20 -20 -20 -20 -19 -19 -19 -19 -19 -19 -19 -19 -19 -19 -19 -19 -20 -20 -20 -20 -20 -20 -20 -20 -19 -20 -22 -21 -21 -20 -22 -22 -22
-22 -22 -22 -22 -21 -21 -21 -21 -21 -21 -21 -21 -20 -20 -20 -20 -19 -19 -20 -20 -20 -19 -20 -20 -20 -20 -20 -20 -21 -21 -21 -21 -21 -21 -20 -20 -21 -21 -22 -23 -22 -22 -23 -23
-23 -22 -22 -22 -22 -22 -21 -22 -22 -22 -22 -21 -21 -21 -20 -20 -20 -20 -20 -20 -20 -20 -20 -20 -20 -20 -21 -21 -21 -21 -22 -22 -22 -22 -20 -22 -22 -22 -23 -24 -23 -23 -24 -24
-23 -23 -23 -22 -22 -22 -22 -22 -22 -22 -22 -21 -21 -21 -21 -21 -21 -21 -21 -21 -20 -20 -20 -20 -20 -20 -21 -21 -21 -22 -23 -23 -22 -21 -23 -23 -23 -24 -23 -24 -24 -24 -25 -25
-24 -24 -24 -23 -23 -23 -23 -23 -23 -23 -22 -22 -21 -21 -21 -21 -21 -21 -21 -21 -21 -21 -21 -21 -21 -22 -21 -22 -22 -24 -24 -22 -22 -23 -23 -23 -24 -25 -24 -24 -24 -24 -25 -25
-24 -24 -24 -23 -24 -23 -23 -23 -23 -23 -23 -22 -22 -22 -21 -22 -22 -21 -21 -21 -21 -21 -21 -22 -22 -22 -21 -22 -23 -24 -23 -23 -23 -24 -24 -24 -24 -24 -24 -24 -25 -25 -25 -25
-25 -25 -25 -24 -24 -24 -24 -24 -24 -23 -23 -23 -22 -22 -22 -22 -22 -22 -22 -21 -22 -22 -22 -22 -23 -23 -22 -21 -24 -24 -23 -24 -25 -24 -25 -24 -24 -24 -24 -24 -25 -24 -25 -25
-26 -25 -25 -25 -25 -25 -24 -24 -23 -24 -23 -23 -23 -23 -23 -23 -23 -22 -22 -22 -23 -22 -22 -23 -23 -24 -23 -23 -25 -25 -23 -25 -25 -25 -25 -25 -25 -24 -24 -24 -24 -24 -24 -25
-26 -26 -26 -26 -26 -25 -25 -25 -24 -24 -24 -24 -24 -23 -23 -23 -23 -23 -23 -23 -23 -23 -23 -24 -24 -24 -23 -24 -25 -25 -25 -25 -25 -25 -25 -25 -25 -24 -24 -24 -24 -25 -24 -24
-27 -27 -27 -27 -26 -26 -25 -25 -24 -24 -24 -24 -24 -24 -24 -24 -24 -24 -23 -24 -23 -23 -24 -24 -24 -25 -24 -25 -25 -25 -25 -25 -25 -25 -25 -25 -24 -24 -24 -24 -24 -25 -24 -24
-27 -27 -27 -27 -27 -26 -25 -25 -24 -24 -24 -25 -25 -25 -25 -25 -25 -25 -25 -24 -24 -24 -25 -25 -25 -25 -25 -25 -25 -25 -25 -25 -25 -25 -25 -24 -24 -24 -25 -25 -25 -24 -23 -23
-28 -27 -28 -28 -27 -26 -25 -25 -24 -24 -24 -26 -26 -25 -26 -26 -25 -25 -25 -25 -25 -25 -25 -25 -25 -26 -26 -26 -25 -25 -25 -25 -25 -25 -25 -25 -25 -25 -25 -25 -24 -24 -24 -23
-28 -28 -28 -28 -27 -26 -25 -25 -24 -24 -24 -26 -25 -26 -26 -26 -26 -26 -25 -25 -25 -25 -25 -25 -26 -27 -26 -26 -26 -25 -25 -25 -25 -25 -25 -25 -25 -25 -25 -25 -25 -25 -24 -24
-28 -28 -27 -27 -27 -26 -24 -24 -24 -25 -26 -26 -26 -26 -26 -26 -26 -26 -26 -26 -26 -25 -25 -25 -26 -26 -26 -26 -26 -25 -25 -25 -25 -25 -25 -25 -26 -25 -26 -25 -26 -25 -25 -25
-27 -27 -27 -27 -26 -25 -25 -26 -26 -26 -26 -26 -26 -26 -26 -26 -26 -26 -26 -26 -26 -25 -25 -26 -26 -26 -26 -26 -25 -25 -25 -25 -26 -26 -26 -26 -26 -26 -26 -26 -26 -25 -25 -25
-27 -27 -27 -26 -26 -26 -26 -26 -26 -26 -27 -26 -26 -26 -26 -26 -26 -26 -26 -26 -25 -26 -26 -26 -26 -26 -26 -26 -26 -26 -26 -26 -26 -26 -26 -26 -27 -27 -27 -26 -26 -26 -25 -25
-28 -27 -27 -27 -27 -27 -27 -27 -27 -27 -27 -27 -27 -27 -26 -26 -26 -26 -26 -26 -26 -26 -26 -26 -26 -26 -26 -26 -26 -26 -26 -26 -26 -27 -27 -27 -27 -27 -27 -27 -27 -26 -26 -26
-27 -27 -27 -27 -28 -28 -28 -27 -27 -27 -27 -27 -27 -27 -27 -27 -26 -26 -26 -26 -26 -26 -26 -26 -26 -26 -26 -26 -26 -26 -26 -26 -27 -27 -27 -28 -28 -28 -27 -27 -27 -26 -26 -26
Height
5589 5594 5599 5603 5606 5611 5616 5619 5623 5626 5629 5633 5636 5640 5643 5646 5649 5653 5657 5660 5664 5667 5670 5674 5676 5679 5682 5684 5687 5690 5693 5694 5695 5697 5699 5700 5701 5702 5703 5703 5704 5705 5705 5715
5583 5588 5593 5598 5602 5606 5611 5614 5619 5622 5625 5629 5633 5636 5639 5642 5645 5649 5652 5656 5660 5664 5666 5669 5670 5673 5677 5681 5683 5686 5688 5688 5690 5691 5693 5693 5694 5694 5694 5694 5695 5695 5696 5703
5577 5583 5587 5592 5597 5601 5606 5611 5614 5618 5621 5624 5628 5631 5635 5639 5642 5646 5650 5653 5656 5659 5661 5663 5666 5670 5673 5676 5678 5680 5680 5683 5684 5687 5685 5687 5686 5686 5685 5684 5684 5685 5685 5687
5571 5577 5582 5587 5591 5596 5600 5605 5609 5613 5616 5619 5623 5628 5631 5635 5638 5643 5646 5649 5651 5653 5655 5657 5660 5664 5667 5668 5671 5672 5674 5676 5677 5677 5677 5677 5676 5675 5675 5676 5676 5672 5674 5674
5564 5569 5576 5581 5585 5589 5594 5599 5604 5607 5610 5615 5619 5623 5627 5631 5634 5638 5641 5643 5645 5647 5650 5653 5655 5657 5659 5661 5664 5664 5665 5664 5666 5665 5666 5666 5665 5665 5666 5664 5661 5656 5656 5660
5557 5564 5570 5574 5580 5584 5587 5593 5597 5601 5604 5609 5613 5617 5622 5626 5629 5632 5635 5637 5639 5642 5645 5647 5648 5650 5652 5653 5654 5653 5654 5654 5654 5654 5655 5654 5653 5654 5652 5650 5647 5644 5641 5644
5551 5557 5563 5569 5573 5577 5581 5586 5591 5596 5600 5603 5607 5611 5615 5619 5622 5626 5629 5631 5634 5638 5639 5640 5641 5643 5643 5644 5644 5643 5645 5644 5644 5645 5645 5643 5641 5640 5639 5636 5630 5627 5629 5628
5544 5550 5556 5563 5567 5571 5575 5580 5585 5589 5593 5598 5601 5606 5610 5613 5616 5619 5621 5623 5628 5629 5630 5633 5634 5635 5636 5636 5636 5636 5637 5636 5635 5634 5634 5634 5631 5629 5625 5619 5615 5616 5613 5610
5537 5544 5550 5556 5562 5565 5569 5574 5579 5584 5588 5591 5595 5599 5603 5606 5610 5612 5614 5617 5620 5621 5622 5624 5625 5625 5626 5627 5629 5629 5628 5627 5627 5625 5623 5622 5619 5615 5609 5609 5609 5602 5600 5597
5531 5537 5543 5549 5555 5559 5563 5567 5572 5578 5582 5585 5589 5593 5597 5600 5603 5605 5608 5611 5614 5615 5616 5616 5616 5617 5618 5618 5619 5619 5618 5617 5616 5615 5612 5617 5615 5598 5600 5599 5601 5590 5586 5581
5524 5530 5535 5542 5548 5552 5557 5561 5565 5571 5575 5579 5583 5586 5590 5593 5595 5598 5603 5606 5607 5607 5607 5608 5608 5608 5610 5611 5611 5609 5608 5608 5607 5604 5604 5606 5604 5592 5587 5585 5586 5578 5572 5567
5516 5523 5529 5534 5541 5546 5550 5554 5558 5563 5568 5572 5576 5580 5582 5585 5590 5593 5595 5597 5598 5598 5598 5600 5600 5601 5602 5601 5602 5599 5600 5599 5597 5597 5595 5596 5589 5586 5580 5572 5568 5566 5560 5559
5508 5515 5521 5527 5534 5539 5543 5547 5551 5556 5560 5564 5568 5571 5577 5579 5581 5586 5588 5587 5588 5590 5592 5593 5593 5594 5594 5593 5592 5591 5591 5589 5589 5585 5591 5584 5579 5577 5573 5564 5559 5555 5550 5545
5501 5508 5513 5520 5526 5531 5535 5539 5544 5549 5553 5557 5562 5565 5568 5572 5574 5576 5579 5581 5582 5583 5584 5585 5586 5586 5587 5585 5583 5584 5581 5580 5579 5580 5577 5573 5570 5566 5562 5558 5552 5548 5544 5535
5493 5500 5506 5513 5519 5524 5527 5532 5537 5542 5548 5551 5555 5558 5561 5564 5567 5569 5571 5572 5574 5576 5577 5578 5578 5578 5578 5577 5577 5577 5573 5571 5572 5570 5566 5564 5563 5559 5555 5550 5544 5538 5532 5529
5486 5493 5499 5506 5512 5517 5521 5526 5531 5536 5541 5545 5548 5552 5555 5557 5559 5561 5563 5565 5567 5568 5569 5569 5571 5570 5570 5570 5571 5567 5563 5565 5564 5562 5560 5558 5555 5550 5546 5541 5535 5527 5520 5511
5478 5486 5493 5499 5505 5510 5515 5521 5525 5530 5534 5539 5542 5544 5548 5551 5554 5556 5558 5559 5561 5562 5563 5564 5564 5563 5562 5564 5562 5556 5557 5558 5557 5556 5553 5551 5547 5543 5538 5531 5525 5516 5507 5498
5474 5479 5487 5493 5498 5504 5510 5514 5518 5524 5529 5532 5535 5539 5544 5546 5548 5550 5552 5554 5555 5556 5556 5558 5557 5556 5556 5557 5552 5553 5553 5553 5552 5550 5547 5542 5539 5534 5527 5520 5512 5505 5494 5483
5468 5474 5480 5487 5492 5499 5505 5509 5513 5518 5525 5527 5530 5533 5537 5540 5543 5545 5547 5548 5548 5549 5550 5550 5550 5551 5551 5548 5548 5548 5549 5548 5547 5545 5541 5536 5531 5525 5519 5512 5502 5492 5481 5472
5462 5469 5476 5480 5487 5494 5500 5504 5509 5513 5517 5521 5526 5528 5531 5535 5537 5539 5542 5542 5542 5542 5544 5543 5544 5546 5543 5541 5544 5544 5544 5542 5541 5537 5534 5529 5524 5517 5510 5501 5492 5480 5471 5463
5456 5463 5470 5478 5483 5489 5494 5499 5503 5507 5513 5519 5521 5524 5526 5529 5533 5535 5535 5536 5536 5536 5539 5537 5539 5540 5537 5538 5539 5539 5538 5536 5533 5531 5526 5521 5515 5508 5501 5493 5483 5473 5465 5458
5453 5461 5468 5473 5478 5484 5489 5494 5498 5502 5508 5516 5516 5519 5523 5525 5528 5529 5531 5531 5531 5532 5534 5532 5535 5534 5532 5533 5533 5533 5531 5530 5527 5523 5517 5513 5507 5501 5495 5488 5480 5473 5465 5457
5446 5454 5461 5468 5474 5478 5482 5487 5493 5500 5506 5508 5510 5512 5515 5518 5522 5523 5525 5525 5527 5528 5528 5529 5529 5528 5527 5528 5528 5527 5525 5522 5518 5514 5510 5505 5500 5495 5489 5483 5477 5472 5465 5458
5442 5449 5456 5462 5468 5473 5480 5486 5491 5494 5499 5502 5505 5507 5511 5514 5516 5517 5518 5520 5522 5523 5523 5524 5521 5521 5521 5522 5521 5519 5517 5513 5510 5506 5503 5498 5494 5488 5483 5478 5473 5468 5463 5458
5437 5444 5451 5458 5464 5470 5476 5481 5486 5490 5493 5496 5500 5503 5507 5508 5510 5511 5513 5515 5516 5518 5518 5516 5516 5515 5515 5514 5513 5511 5508 5505 5502 5499 5495 5491 5487 5483 5479 5475 5471 5466 5461 5456
5432 5439 5446 5453 5459 5466 5471 5476 5480 5484 5487 5491 5494 5497 5501 5502 5504 5506 5509 5511 5512 5512 5511 5511 5510 5510 5509 5507 5506 5503 5501 5498 5494 5491 5488 5485 5482 5478 5475 5472 5468 5463 5459 5456
5426 5434 5441 5448 5455 5460 5465 5470 5474 5478 5481 5485 5489 5492 5495 5498 5499 5502 5504 5506 5505 5506 5506 5505 5505 5504 5502 5501 5499 5497 5493 5489 5485 5483 5480 5478 5476 5474 5472 5469 5466 5462 5458 5454
Wind_Speed
30 29 27 26 24 24 24 22 21 20 20 21 19 20 21 23 25 26 26 25 24 23 23 23 24 24 24 24 23 22 21 22 24 24 24 25 26 27 29 30 32 33 35 30
31 30 28 26 27 26 25 24 23 22 21 20 21 21 21 22 23 22 22 21 21 20 20 20 20 20 20 19 20 21 21 23 23 24 26 27 28 29 31 33 35 37 38 34
32 31 30 28 27 27 27 26 25 23 23 23 22 22 22 21 21 20 19 18 18 19 20 21 21 20 20 22 23 23 24 24 26 27 30 28 30 33 35 38 40 38 41 39
32 31 31 29 28 28 28 28 28 27 26 27 25 23 23 22 21 20 21 21 21 22 23 24 24 24 24 25 25 26 28 29 29 30 31 33 35 37 39 38 37 42 39 42
33 32 32 33 31 29 29 29 29 29 30 28 28 28 27 25 24 24 23 24 24 25 25 26 26 26 27 28 28 30 30 32 32 34 34 35 38 38 36 37 39 44 45 45
34 32 32 31 31 29 29 29 30 29 30 30 30 30 28 27 27 26 26 26 27 27 26 27 28 29 29 29 29 33 33 33 36 37 36 38 41 38 40 42 43 45 48 46
35 34 33 34 32 31 30 29 30 29 29 30 31 31 31 30 30 29 29 29 29 27 28 28 28 28 29 30 30 33 33 36 37 38 38 42 45 45 43 42 46 49 47 49
39 38 36 35 33 32 31 29 29 29 30 31 31 32 31 31 30 29 30 30 27 28 28 27 28 28 29 30 31 33 33 36 38 40 41 44 45 45 45 49 51 47 50 53
41 38 38 37 35 34 32 31 29 29 31 31 31 31 31 30 29 29 30 28 27 27 28 27 27 29 29 31 30 31 34 37 40 42 45 46 45 44 47 49 50 49 48 51
40 38 37 39 39 36 34 33 31 31 30 31 30 30 29 29 29 30 29 26 27 26 27 29 30 31 33 34 34 34 35 37 38 39 43 41 37 44 45 48 49 49 51 52
41 41 40 39 38 37 36 35 32 32 31 31 31 30 30 30 31 31 28 28 28 31 31 32 32 33 32 31 32 33 35 34 34 37 39 38 36 45 44 43 44 47 47 46
41 42 42 40 38 38 37 36 35 33 31 32 32 32 32 33 30 29 30 30 31 32 33 32 32 31 29 29 28 30 29 30 33 33 38 32 35 37 36 39 46 47 47 44
42 42 40 38 38 38 38 37 35 35 34 33 32 33 29 29 29 26 27 30 31 29 29 29 30 28 26 26 27 26 23 28 30 36 26 30 29 30 34 38 40 39 39 41
39 39 38 38 38 39 38 36 34 34 33 31 30 29 29 26 25 26 26 27 26 27 26 25 24 23 24 24 27 19 24 30 32 25 25 29 23 23 27 32 35 37 39 44
39 39 37 37 38 38 36 34 33 31 30 30 27 29 28 25 24 25 26 26 26 24 24 23 21 22 26 25 22 16 26 28 22 21 21 21 21 24 28 32 34 41 46 48
41 38 36 37 36 34 33 32 30 29 27 27 27 28 24 23 23 24 24 23 22 22 23 23 21 23 25 25 16 16 27 22 15 12 17 20 23 26 33 36 41 45 51 55
41 38 37 34 33 33 32 29 29 27 26 25 25 25 21 21 20 20 20 19 20 22 23 21 20 20 26 21 7 22 24 13 12 15 20 23 29 35 41 44 47 52 53 62
38 37 33 31 30 29 28 29 29 27 24 24 23 22 20 19 20 20 20 21 21 21 21 19 19 21 20 14 21 21 15 13 17 20 22 29 34 40 46 48 50 53 58 59
37 35 33 32 31 28 28 27 26 24 22 20 20 20 19 19 19 20 19 19 19 20 18 19 23 17 14 23 20 13 11 16 19 21 28 35 40 45 48 50 49 56 55 46
38 38 36 32 28 26 27 26 26 25 24 22 20 20 19 18 18 18 18 19 20 21 20 22 20 12 21 22 13 12 16 19 22 25 32 37 39 44 49 47 53 46 36 35
40 38 37 30 27 28 27 26 27 26 25 20 20 18 19 19 21 22 23 22 24 24 20 22 15 11 20 18 16 16 18 21 25 29 34 37 41 46 45 49 45 34 32 33
38 36 33 32 32 30 28 27 27 27 22 11 16 16 19 24 25 26 25 25 26 24 20 21 10 13 20 19 19 20 23 26 29 33 35 38 39 40 42 43 36 24 24 24
41 40 39 36 35 34 32 29 27 19 12 13 16 18 18 20 23 25 25 25 22 19 18 14 9 16 21 21 20 22 25 28 30 31 33 32 36 39 42 37 33 28 22 21
41 39 37 36 35 33 27 20 19 18 17 16 16 18 18 17 20 23 24 22 19 14 12 6 14 17 17 19 20 23 26 26 27 29 31 35 36 36 34 32 33 28 17 14
37 35 34 32 29 26 24 22 20 19 19 19 17 17 19 21 23 24 22 18 14 8 10 14 15 16 17 19 21 23 24 26 29 32 33 32 28 27 27 25 26 22 16 15
34 34 32 29 27 24 23 23 24 23 22 20 18 19 21 24 25 23 17 13 10 13 15 15 15 17 18 19 20 24 26 31 33 31 28 27 23 22 24 24 25 24 20 17
38 36 34 31 28 25 26 26 26 24 24 23 22 21 21 22 23 19 15 12 15 15 16 18 18 17 18 20 24 27 31 33 30 27 26 19 17 19 21 22 23 20 16 13
Wind_Direction
228 230 233 235 227 223 216 215 212 211 213 216 217 218 217 219 218 219 221 223 226 228 231 234 235 235 234 232 234 238 240 245 249 254 254 257 259 262 264 265 269 269 270 266
226 228 228 232 230 223 219 213 216 216 218 218 218 214 213 214 216 217 218 221 223 226 229 232 233 232 234 237 241 245 245 246 249 255 259 257 260 264 267 268 268 267 269 273
227 229 228 226 230 225 224 220 218 218 218 218 216 214 213 214 214 214 215 219 224 229 233 237 241 243 244 245 245 247 250 252 252 251 257 262 262 263 263 265 268 273 275 276
229 230 232 229 227 229 226 225 222 216 217 217 211 213 213 213 217 220 221 225 228 233 236 241 244 247 249 251 253 254 255 255 255 257 257 260 262 265 267 271 274 271 273 272
223 224 230 231 225 226 228 226 225 223 219 219 219 216 218 219 222 227 230 232 235 239 243 249 251 253 253 253 254 256 257 261 261 259 261 264 266 270 276 275 277 277 278 278
224 225 228 230 232 229 225 229 229 224 225 224 224 224 225 227 229 231 234 237 242 246 250 254 258 261 261 263 265 263 263 265 266 267 269 271 273 279 279 280 281 280 278 279
222 225 229 231 228 227 229 229 230 229 229 229 228 228 227 227 230 232 235 239 242 248 253 257 260 262 264 266 266 267 270 271 271 274 275 275 277 281 284 285 281 279 283 282
223 227 228 229 228 227 226 225 224 224 225 228 229 229 230 233 235 236 239 243 247 250 253 255 259 261 262 262 262 265 268 272 275 276 278 279 283 286 289 283 284 294 292 290
223 226 230 226 225 225 224 222 221 220 221 223 226 228 231 234 237 240 244 248 253 258 262 266 268 268 268 268 270 271 272 274 275 279 279 281 286 289 284 285 293 290 288 290
223 227 230 230 224 221 222 221 220 221 221 221 224 226 229 232 236 241 246 252 254 257 261 264 267 269 272 273 275 276 276 275 276 277 277 282 287 284 290 288 288 295 295 294
225 227 225 221 221 222 221 222 223 223 222 224 226 230 234 237 241 245 250 253 257 259 263 265 265 268 271 274 276 276 274 277 278 279 284 285 286 288 292 297 293 292 291 295
225 223 220 222 224 225 225 225 225 225 225 226 228 230 233 238 246 252 252 255 256 257 259 263 266 268 272 273 273 276 278 278 279 283 283 296 287 289 295 297 293 294 297 298
217 218 221 227 232 233 229 227 225 227 229 231 231 234 239 240 242 248 249 249 251 257 260 260 263 268 271 273 271 274 275 277 280 281 298 288 288 291 290 291 299 304 305 306
217 219 221 226 230 230 227 226 227 228 229 231 231 235 238 240 242 245 251 255 257 258 262 266 271 273 274 271 273 282 280 279 283 299 294 289 300 298 298 302 302 304 307 311
216 221 225 228 229 228 226 227 228 228 228 232 234 237 239 240 243 249 252 255 258 260 264 265 265 266 267 269 276 285 279 288 298 300 290 296 306 302 307 307 306 307 306 306
221 225 227 227 225 225 224 227 227 228 228 231 234 237 241 239 239 242 248 253 255 259 262 264 264 265 269 272 294 280 280 291 293 283 299 306 311 310 312 311 310 311 310 309
224 223 221 218 220 221 223 224 224 223 224 226 231 234 232 237 238 240 244 251 254 255 258 260 263 267 270 281 290 259 290 301 285 299 308 315 319 316 309 307 305 311 311 311
212 215 213 216 220 222 220 219 221 219 218 222 225 230 226 230 233 238 243 248 253 258 262 266 269 272 284 297 263 278 288 284 300 304 311 319 316 316 318 313 310 313 309 314
206 213 215 216 216 217 217 216 218 217 216 219 223 225 227 228 234 240 245 249 254 259 264 267 269 280 283 269 278 271 271 289 296 305 316 320 316 313 317 318 316 314 314 312
204 208 210 212 215 214 213 208 210 211 211 209 209 221 221 226 235 243 247 255 261 267 269 271 277 275 265 265 260 265 281 287 297 304 316 318 315 317 319 317 319 320 319 317
200 205 208 207 207 208 206 199 207 215 214 194 207 216 218 221 229 234 244 249 256 262 270 276 274 255 246 254 262 272 279 294 305 308 313 315 318 320 324 326 331 333 331 326
203 206 208 204 202 203 206 204 206 215 219 189 211 210 204 218 222 229 236 246 254 264 274 279 274 246 244 253 267 278 286 292 304 311 315 315 319 319 326 330 330 329 335 345
200 199 199 199 200 203 212 212 212 215 202 197 208 222 217 214 219 227 236 247 258 269 283 291 257 245 252 259 270 283 291 300 309 312 314 315 317 318 320 323 319 316 335 360
194 196 197 200 203 208 212 212 209 215 213 213 218 231 229 227 230 235 244 257 269 275 301 291 254 256 261 270 280 287 297 305 310 311 312 314 315 317 319 319 318 313 327 343
196 197 200 205 209 210 211 214 215 217 223 227 228 228 228 230 237 242 251 269 275 288 282 275 275 272 276 282 290 299 305 308 308 309 310 310 316 314 312 307 317 323 329 335
200 203 205 208 214 216 219 222 223 225 228 231 234 233 230 234 241 250 261 275 273 273 270 279 285 285 288 293 300 305 306 307 307 306 305 307 309 304 308 319 324 328 336 343
206 207 210 213 217 220 222 225 226 225 229 231 234 237 233 237 247 255 259 271 258 257 271 280 285 291 295 299 304 305 307 308 306 305 304 299 293 296 309 315 317 322 326 331